Location: Caltech
(34.1382°N, 118.1253°W)
Time: 08:21:18
(UTC-07:00)

Cosmos 1125 Rocket - Visible Passes

Search period start: 27 July 2016 00:00
Search period end: 06 August 2016 00:00
Orbit: 758 x 780 km, 74.0° (Epoch: 27 July)

Date Brightness Start Highest point End Pass type
(mag) Time Alt. Az. Time Alt. Az. Time Alt. Az.
27 Jul 5.8 03:26:53 10° NNE 03:30:55 22° ENE 03:34:55 10° ESE visible
27 Jul 4.0 05:08:20 10° NW 05:13:03 36° W 05:17:44 10° SSW visible
28 Jul 6.3 02:51:37 10° NNE 02:53:56 13° ENE 02:56:15 10° E visible
28 Jul 3.4 04:31:19 10° NNW 04:36:29 66° WSW 04:41:36 10° S visible
29 Jul 3.7 03:54:38 10° NNW 03:59:50 69° ENE 04:04:59 10° SSE visible
30 Jul 4.7 03:18:14 10° N 03:23:05 38° ENE 03:27:16 13° SE visible
30 Jul 4.8 05:01:07 10° NW 05:04:49 20° W 05:07:24 14° SW visible
31 Jul 5.6 02:42:11 10° NNE 02:46:13 22° ENE 02:49:22 13° ESE visible
31 Jul 4.0 04:23:38 10° NW 04:28:20 36° W 04:29:32 31° SW visible
01 Aug 6.2 02:06:55 10° NNE 02:09:14 13° ENE 02:11:32 10° E visible
01 Aug 3.3 03:46:37 10° NNW 03:51:47 66° WSW 03:52:03 64° WSW visible
02 Aug 3.7 03:09:56 10° NNW 03:14:50 67° NE 03:14:50 67° NE visible
03 Aug 4.7 02:33:32 10° N 02:37:48 37° NE 02:37:48 37° NE visible
03 Aug 5.3 04:16:25 10° NW 04:18:01 16° WNW 04:18:01 16° WNW visible
04 Aug 5.6 01:57:28 10° NNE 02:00:54 22° NE 02:00:54 22° NE visible
04 Aug 5.0 03:38:56 10° NW 03:41:08 23° NW 03:41:08 23° NW visible
05 Aug 6.1 01:22:12 10° NNE 01:24:08 13° NE 01:24:08 13° NE visible
05 Aug 5.0 03:01:55 10° NNW 03:04:21 28° NNW 03:04:21 28° NNW visible
